Regional Weather Roundup
Issued by NWS Sioux Falls, SD

Home | Current Version | Previous Version | Text Only | Print | Product List | Glossary Off
Versions: 1 2 3 4 5 6 7 8 9 10 11 12 13 14 15 16 17 18 19 20 21 22 23 24 25 26 27 28 29 30 31 32 33 34 35 36 37 38 39 40 41 42 43 44 45 46 47 48 49 50

000
ASUS43 KFSD 300810
RWRFSD

WEATHER ROUNDUP FOR SE SOUTH DAKOTA/SW MINNESOTA/NW IOWA
NATIONAL WEATHER SERVICE SIOUX FALLS SD
300 AM CDT TUE SEP 30 2014

NOTE: "FAIR" INDICATES FEW OR NO CLOUDS BELOW 12,000 FEET WITH NO
SIGNIFICANT WEATHER AND OR OBSTRUCTIONS TO VISIBILITY.


SDZ038>040-050-052>070-300900-
SOUTHEAST SOUTH DAKOTA

CITY           SKY/WX    TMP DP  RH WIND       PRES   REMARKS
CHAMBERLAIN    CLOUDY    59  57  93 SE17G26   29.80F
HURON          MOCLDY    54  49  83 SE15      29.88F
MADISON        FAIR      48  48 100 E10       29.96F
MITCHELL       MOCLDY    56  52  86 SE16      29.89F
SIOUX FALLS    PTCLDY    53  49  86 E14       29.95F
WINNER         CLOUDY    65  59  81 SE25G32   29.75F
YANKTON        CLOUDY    59  55  88 E14G20    29.91F
$$

MNZ071-072-080-081-089-090-097-098-300900-
SOUTHWEST MINNESOTA

CITY           SKY/WX    TMP DP  RH WIND       PRES   REMARKS
FAIRMONT       CLEAR     46  43  87 E6        30.04F
JACKSON        CLOUDY    48  45  87 E5        30.04S
LUVERNE        PTCLDY    54  48  82 E6        29.99F
MARSHALL       PTCLDY    46  43  87 SE14      30.02F
MONTEVIDEO     CLEAR     45  45 100 SE10      30.06S
PIPESTONE      PTCLDY    52  46  82 SE13G18   29.97F
REDWOOD FALLS  CLEAR     46  43  89 E10       30.05F
TRACY          PTCLDY    48  46  95 E6        30.03F
WINDOM         PTCLDY    48  46  93 E8        30.04S
WORTHINGTON    MOCLDY    50  46  87 E12       30.02F
$$

IAZ001>003-012>014-020>022-031-032-NEZ013-014-SDZ071-300900-
NORTHWEST IOWA

CITY           SKY/WX    TMP DP  RH WIND       PRES   REMARKS
CHEROKEE       FAIR      53  52  95 E6        29.99F
DENISON        MOCLDY    57  57 100 E7        29.96F
ESTHERVILLE    PTCLDY    48  48 100 E6        30.03F
LE MARS          N/A     57  54  88 E7        29.97F
ORANGE CITY    CLEAR     55  50  82 E9        29.97F
SHELDON        CLOUDY    52  50  93 E12       29.98F
SIOUX CITY     PTCLDY    59  56  89 E7        29.94F
SPENCER        MOCLDY    52  48  86 E13       30.01F
STORM LAKE     CLEAR     52  50  93 E10       30.00F
$$

ABBREVIATIONS USED IN REMARKS
   TC - TEMPERATURE IN CELSIUS
  WCI - WIND CHILL INDEX
   HX - HEAT INDEX
  VSB - VISIBILITY




USA.gov is the U.S. government's official web portal to all federal, state and local government web resources and services.